This is the latest recevied weather packets stored in our database for station/object G4KVI. If no packets are shown the sender has not sent any weather packets the latest 10 day(s).
| Time | Temp. | Humidity | Pressure | Rain* | Wind** | Luminosity | Snow |
|---|---|---|---|---|---|---|---|
| 1777557304 | 22.22° C | 24% | 1020.7 hPa | 0 mm | - | 649 W/m² | - |
| 1777557004 | 22.22° C | 25% | 1020.6 hPa | 0 mm | - | 653 W/m² | - |
| 1777556704 | 21.67° C | 24% | 1020.6 hPa | 0 mm | - | 660 W/m² | - |
| 1777556404 | 21.67° C | 27% | 1020.8 hPa | 0 mm | - | 663 W/m² | - |
| 1777556104 | 21.67° C | 28% | 1020.8 hPa | 0 mm | - | 671 W/m² | - |
| 1777555804 | 21.67° C | 27% | 1020.7 hPa | 0 mm | - | 674 W/m² | - |
| 1777555504 | 21.67° C | 29% | 1020.9 hPa | 0 mm | - | 678 W/m² | - |
| 1777555204 | 21.11° C | 31% | 1021 hPa | 0 mm | - | 684 W/m² | - |
| 1777554904 | 21.67° C | 30% | 1021.1 hPa | 0 mm | - | 690 W/m² | - |
| 1777554604 | 21.11° C | 29% | 1021.1 hPa | 0 mm | - | 695 W/m² | - |
| 1777554304 | 21.11° C | 29% | 1021.4 hPa | 0 mm | - | 697 W/m² | - |
| 1777554004 | 21.67° C | 29% | 1020.9 hPa | 0 mm | - | 699 W/m² | - |
| 1777553704 | 21.11° C | 30% | 1021.2 hPa | 0 mm | - | 705 W/m² | - |
| 1777553404 | 21.11° C | 32% | 1021 hPa | 0 mm | - | 707 W/m² | - |
| 1777553104 | 21.11° C | 30% | 1020.9 hPa | 0 mm | - | 710 W/m² | - |
| 1777552804 | 21.11° C | 31% | 1021.1 hPa | 0 mm | - | 712 W/m² | - |
| 1777552504 | 20.56° C | 31% | 1021.2 hPa | 0 mm | - | 713 W/m² | - |
| 1777552204 | 21.11° C | 31% | 1021.2 hPa | 0 mm | - | 717 W/m² | - |
| 1777551904 | 20.56° C | 32% | 1021.1 hPa | 0 mm | - | 717 W/m² | - |
| 1777551604 | 20.56° C | 32% | 1021.2 hPa | 0 mm | - | 719 W/m² | - |
| 1777551309 | 20.56° C | 33% | 1021.4 hPa | 0 mm | - | 718 W/m² | - |
| 1777551004 | 20.56° C | 34% | 1021.2 hPa | 0 mm | - | 719 W/m² | - |
| 1777550704 | 20.56° C | 33% | 1021.3 hPa | 0 mm | - | 722 W/m² | - |
| 1777550404 | 20.56° C | 34% | 1021.4 hPa | 0 mm | - | 720 W/m² | - |
| 1777550104 | 20° C | 37% | 1021.2 hPa | 0 mm | - | 720 W/m² | - |
* Rain latest hour (hover to see other rain measurements)
** Current wind speed in m/s (hover to see current wind gust speed)